Location: Bagnolo San Vito
(45.0833°N, 10.8833°E)
Time: 22:49:13
(UTC+00:00)

Cosmos 968 Rocket - Pass Details

Date: 03 March 2021
Orbit: 740 x 771 km, 74.0° (Epoch: 17 April)

Event Time Altitude Azimuth Distance (km) Brightness Sun altitude
Rises 17:48:54 0° 338° (NNW) 3,249 7.0 -8.3°
Reaches altitude 10° 17:51:16 10° 338° (NNW) 2,321 6.3 -8.7°
Maximum altitude 17:56:34 88° 254° (WSW) 778 3.6 -9.6°
Drops below altitude 10° 18:01:49 10° 162° (SSE) 2,308 5.8 -10.5°
Sets 18:04:11 0° 162° (SSE) 3,229 6.5 -10.9°
